Time,TemperatureF,DewpointF,PressureIn,WindDirection,WindDirectionDegrees,WindSpeedMPH,WindSpeedGustMPH,Humidity,HourlyPrecipIn,Conditions,Clouds,dailyrainin,SoftwareType,DateUTC
2013-03-08 00:02:00,39.0,24.0,-100.00,East,85,4.0,7.0,54,-99.99,,,-99.99,,2013-03-08 05:02:00,
2013-03-08 00:12:00,39.0,24.0,-100.00,ENE,60,2.0,7.0,55,-99.99,,,-99.99,,2013-03-08 05:12:00,
2013-03-08 00:22:00,39.0,24.0,-100.00,East,95,2.0,6.0,55,-99.99,,,-99.99,,2013-03-08 05:22:00,
2013-03-08 00:33:00,38.0,24.0,-100.00,ESE,105,3.0,10.0,56,-99.99,,,-99.99,,2013-03-08 05:33:00,
2013-03-08 00:42:00,38.0,24.0,-100.00,East,90,4.0,12.0,56,-99.99,,,-99.99,,2013-03-08 05:42:00,
2013-03-08 00:52:00,38.0,24.0,-100.00,East,80,1.0,6.0,57,-99.99,,,-99.99,,2013-03-08 05:52:00,
2013-03-08 01:02:00,38.0,24.0,-100.00,ESE,110,3.0,9.0,58,-99.99,,,-99.99,,2013-03-08 06:02:00,
2013-03-08 01:11:00,37.0,24.0,-100.00,East,80,2.0,8.0,59,-99.99,,,-99.99,,2013-03-08 06:11:00,
2013-03-08 01:22:00,37.0,24.0,-100.00,East,85,2.0,8.0,59,-99.99,,,-99.99,,2013-03-08 06:22:00,
2013-03-08 01:32:00,37.0,24.0,-100.00,East,100,2.0,9.0,60,-99.99,,,-99.99,,2013-03-08 06:32:00,
2013-03-08 01:42:00,36.0,24.0,-100.00,East,100,1.0,8.0,60,-99.99,,,-99.99,,2013-03-08 06:42:00,
2013-03-08 01:52:00,36.0,24.0,-100.00,East,80,1.0,6.0,61,-99.99,,,-99.99,,2013-03-08 06:52:00,
2013-03-08 02:01:00,36.0,24.0,-100.00,East,80,2.0,6.0,61,-99.99,,,-99.99,,2013-03-08 07:01:00,
2013-03-08 02:11:00,36.0,24.0,-100.00,ESE,105,3.0,8.0,62,-99.99,,,-99.99,,2013-03-08 07:11:00,
2013-03-08 02:22:00,36.0,24.0,-100.00,SE,125,2.0,10.0,62,-99.99,,,-99.99,,2013-03-08 07:22:00,
2013-03-08 02:32:00,35.0,24.0,-100.00,ENE,60,3.0,9.0,62,-99.99,,,-99.99,,2013-03-08 07:32:00,
2013-03-08 02:42:00,35.0,24.0,-100.00,East,80,2.0,6.0,63,-99.99,,,-99.99,,2013-03-08 07:42:00,
2013-03-08 02:52:00,35.0,24.0,-100.00,East,95,1.0,7.0,63,-99.99,,,-99.99,,2013-03-08 07:52:00,
2013-03-08 03:01:00,35.0,24.0,-100.00,East,85,2.0,9.0,64,-99.99,,,-99.99,,2013-03-08 08:01:00,
2013-03-08 03:11:00,35.0,24.0,-100.00,East,85,2.0,8.0,64,-99.99,,,-99.99,,2013-03-08 08:11:00,
2013-03-08 03:22:00,35.0,24.0,-100.00,ESE,105,2.0,8.0,64,-99.99,,,-99.99,,2013-03-08 08:22:00,
2013-03-08 03:32:00,34.0,23.0,-100.00,SE,135,1.0,6.0,64,-99.99,,,-99.99,,2013-03-08 08:32:00,
2013-03-08 03:42:00,34.0,24.0,-100.00,ESE,105,2.0,5.0,65,-99.99,,,-99.99,,2013-03-08 08:42:00,
2013-03-08 03:52:00,34.0,24.0,-100.00,East,95,1.0,8.0,66,-99.99,,,-99.99,,2013-03-08 08:52:00,
2013-03-08 04:03:00,34.0,24.0,-100.00,ENE,60,1.0,6.0,66,-99.99,,,-99.99,,2013-03-08 09:03:00,
2013-03-08 04:11:00,33.0,24.0,-100.00,SE,130,1.0,3.0,67,-99.99,,,-99.99,,2013-03-08 09:11:00,
2013-03-08 04:22:00,33.0,24.0,-100.00,ESE,110,1.0,4.0,68,-99.99,,,-99.99,,2013-03-08 09:22:00,
2013-03-08 04:32:00,33.0,23.0,-100.00,ENE,75,1.0,3.0,68,-99.99,,,-99.99,,2013-03-08 09:32:00,
2013-03-08 04:42:00,33.0,24.0,-100.00,East,100,1.0,4.0,69,-99.99,,,-99.99,,2013-03-08 09:42:00,
2013-03-08 04:52:00,32.0,24.0,-100.00,ESE,120,1.0,4.0,70,-99.99,,,-99.99,,2013-03-08 09:52:00,
2013-03-08 05:01:00,32.0,24.0,-100.00,ESE,105,1.0,4.0,71,-99.99,,,-99.99,,2013-03-08 10:01:00,
2013-03-08 05:11:00,32.0,24.0,-100.00,East,85,2.0,4.0,71,-99.99,,,-99.99,,2013-03-08 10:11:00,
2013-03-08 05:21:00,32.0,23.0,-100.00,SE,125,1.0,4.0,71,-99.99,,,-99.99,,2013-03-08 10:21:00,
2013-03-08 05:32:00,31.0,24.0,-100.00,East,100,1.0,4.0,73,-99.99,,,-99.99,,2013-03-08 10:32:00,
2013-03-08 05:42:00,31.0,24.0,-100.00,East,90,1.0,4.0,73,-99.99,,,-99.99,,2013-03-08 10:42:00,
2013-03-08 05:52:00,31.0,24.0,-100.00,East,85,0.0,1.0,74,-99.99,,,-99.99,,2013-03-08 10:52:00,
2013-03-08 06:01:00,31.0,24.0,-100.00,East,80,0.0,1.0,74,-99.99,,,-99.99,,2013-03-08 11:01:00,
2013-03-08 06:11:00,31.0,24.0,-100.00,NE,55,0.0,2.0,74,-99.99,,,-99.99,,2013-03-08 11:11:00,
2013-03-08 06:22:00,31.0,24.0,-100.00,East,90,1.0,1.0,75,-99.99,,,-99.99,,2013-03-08 11:22:00,
2013-03-08 06:32:00,31.0,24.0,-100.00,ENE,65,1.0,2.0,75,-99.99,,,-99.99,,2013-03-08 11:32:00,
2013-03-08 06:42:00,31.0,24.0,-100.00,North,0,1.0,4.0,75,-99.99,,,-99.99,,2013-03-08 11:42:00,
2013-03-08 06:52:00,32.0,24.0,-100.00,North,0,0.0,2.0,74,-99.99,,,-99.99,,2013-03-08 11:52:00,
2013-03-08 07:02:00,32.0,25.0,-100.00,NNE,20,1.0,2.0,74,-99.99,,,-99.99,,2013-03-08 12:02:00,
2013-03-08 07:11:00,33.0,25.0,-100.00,NNW,335,2.0,4.0,74,-99.99,,,-99.99,,2013-03-08 12:11:00,
2013-03-08 07:22:00,33.0,25.0,-100.00,NW,320,4.0,7.0,74,-99.99,,,-99.99,,2013-03-08 12:22:00,
2013-03-08 07:32:00,32.0,25.0,-100.00,NNE,25,0.0,4.0,74,-99.99,,,-99.99,,2013-03-08 12:32:00,
2013-03-08 07:43:00,32.0,25.0,-100.00,North,0,1.0,3.0,75,-99.99,,,-99.99,,2013-03-08 12:43:00,
2013-03-08 07:52:00,33.0,26.0,-100.00,North,350,1.0,2.0,75,-99.99,,,-99.99,,2013-03-08 12:52:00,
2013-03-08 08:02:00,33.0,26.0,-100.00,NNE,25,1.0,2.0,75,-99.99,,,-99.99,,2013-03-08 13:02:00,
2013-03-08 08:11:00,35.0,27.0,-100.00,WNW,300,0.0,1.0,74,-99.99,,,-99.99,,2013-03-08 13:11:00,
2013-03-08 08:22:00,34.0,27.0,-100.00,SW,225,0.0,1.0,74,-99.99,,,-99.99,,2013-03-08 13:22:00,
2013-03-08 08:32:00,35.0,27.0,-100.00,South,190,0.0,1.0,73,-99.99,,,-99.99,,2013-03-08 13:32:00,
2013-03-08 08:42:00,36.0,28.0,-100.00,SW,220,1.0,3.0,71,-99.99,,,-99.99,,2013-03-08 13:42:00,
2013-03-08 08:52:00,39.0,29.0,-100.00,NW,305,2.0,4.0,68,-99.99,,,-99.99,,2013-03-08 13:52:00,
2013-03-08 09:03:00,40.0,29.0,-100.00,NNW,335,1.0,6.0,64,-99.99,,,-99.99,,2013-03-08 14:03:00,
2013-03-08 09:12:00,42.0,29.0,-100.00,NW,315,1.0,5.0,60,-99.99,,,-99.99,,2013-03-08 14:12:00,
2013-03-08 09:22:00,42.0,28.0,-100.00,NW,325,2.0,4.0,57,-99.99,,,-99.99,,2013-03-08 14:22:00,
2013-03-08 09:32:00,42.0,27.0,-100.00,NW,320,1.0,4.0,55,-99.99,,,-99.99,,2013-03-08 14:32:00,
2013-03-08 09:42:00,43.0,27.0,-100.00,NW,325,2.0,5.0,54,-99.99,,,-99.99,,2013-03-08 14:42:00,
2013-03-08 09:52:00,44.0,28.0,-100.00,WSW,250,1.0,4.0,52,-99.99,,,-99.99,,2013-03-08 14:52:00,
2013-03-08 10:03:00,46.0,28.0,-100.00,WSW,255,3.0,9.0,50,-99.99,,,-99.99,,2013-03-08 15:03:00,
2013-03-08 10:12:00,47.0,28.0,-100.00,West,260,2.0,5.0,49,-99.99,,,-99.99,,2013-03-08 15:12:00,
2013-03-08 10:22:00,48.0,28.0,-100.00,WNW,290,1.0,4.0,47,-99.99,,,-99.99,,2013-03-08 15:22:00,
2013-03-08 10:32:00,47.0,27.0,-100.00,WSW,250,1.0,4.0,46,-99.99,,,-99.99,,2013-03-08 15:32:00,
2013-03-08 10:42:00,48.0,28.0,-100.00,North,0,2.0,4.0,45,-99.99,,,-99.99,,2013-03-08 15:42:00,
2013-03-08 10:53:00,49.0,27.0,-100.00,ESE,120,1.0,5.0,43,-99.99,,,-99.99,,2013-03-08 15:53:00,
2013-03-08 11:02:00,49.0,27.0,-100.00,SSE,160,3.0,5.0,42,-99.99,,,-99.99,,2013-03-08 16:02:00,
2013-03-08 11:11:00,50.0,27.0,-100.00,WSW,255,1.0,5.0,42,-99.99,,,-99.99,,2013-03-08 16:11:00,
2013-03-08 11:22:00,51.0,28.0,-100.00,WSW,255,2.0,8.0,40,-99.99,,,-99.99,,2013-03-08 16:22:00,
2013-03-08 11:32:00,53.0,29.0,-100.00,WSW,255,3.0,6.0,39,-99.99,,,-99.99,,2013-03-08 16:32:00,
2013-03-08 11:42:00,52.0,27.0,-100.00,NNW,330,2.0,6.0,38,-99.99,,,-99.99,,2013-03-08 16:42:00,
2013-03-08 11:52:00,54.0,27.0,-100.00,WSW,245,3.0,4.0,36,-99.99,,,-99.99,,2013-03-08 16:52:00,
2013-03-08 12:03:00,54.0,27.0,-100.00,NE,50,2.0,4.0,35,-99.99,,,-99.99,,2013-03-08 17:03:00,
2013-03-08 12:12:00,55.0,27.0,-100.00,North,0,2.0,4.0,34,-99.99,,,-99.99,,2013-03-08 17:12:00,
2013-03-08 12:22:00,58.0,29.0,-100.00,ESE,120,1.0,4.0,33,-99.99,,,-99.99,,2013-03-08 17:22:00,
2013-03-08 12:32:00,57.0,28.0,-100.00,WNW,290,1.0,5.0,32,-99.99,,,-99.99,,2013-03-08 17:32:00,
2013-03-08 12:42:00,59.0,28.0,-100.00,East,95,1.0,6.0,30,-99.99,,,-99.99,,2013-03-08 17:42:00,
2013-03-08 12:52:00,58.0,25.0,-100.00,South,170,4.0,6.0,28,-99.99,,,-99.99,,2013-03-08 17:52:00,
2013-03-08 13:02:00,60.0,23.0,-100.00,NNE,30,4.0,11.0,24,-99.99,,,-99.99,,2013-03-08 18:02:00,
2013-03-08 13:12:00,61.0,22.0,-100.00,ENE,75,5.0,19.0,22,-99.99,,,-99.99,,2013-03-08 18:12:00,
2013-03-08 13:22:00,63.0,21.0,-100.00,East,85,6.0,19.0,20,-99.99,,,-99.99,,2013-03-08 18:22:00,
2013-03-08 13:32:00,61.0,20.0,-100.00,North,5,6.0,18.0,20,-99.99,,,-99.99,,2013-03-08 18:32:00,
2013-03-08 13:42:00,62.0,20.0,-100.00,East,80,8.0,18.0,20,-99.99,,,-99.99,,2013-03-08 18:42:00,
2013-03-08 13:52:00,63.0,21.0,-100.00,East,90,5.0,17.0,20,-99.99,,,-99.99,,2013-03-08 18:52:00,
2013-03-08 14:01:00,62.0,20.0,-100.00,NNE,15,9.0,16.0,20,-99.99,,,-99.99,,2013-03-08 19:01:00,
2013-03-08 14:11:00,61.0,20.0,-100.00,East,85,4.0,16.0,20,-99.99,,,-99.99,,2013-03-08 19:11:00,
2013-03-08 14:22:00,63.0,21.0,-100.00,East,85,6.0,14.0,20,-99.99,,,-99.99,,2013-03-08 19:22:00,
2013-03-08 14:32:00,62.0,21.0,-100.00,ENE,70,5.0,14.0,20,-99.99,,,-99.99,,2013-03-08 19:32:00,
2013-03-08 14:42:00,63.0,21.0,-100.00,East,90,6.0,14.0,20,-99.99,,,-99.99,,2013-03-08 19:42:00,
2013-03-08 14:52:00,62.0,21.0,-100.00,NE,55,3.0,16.0,20,-99.99,,,-99.99,,2013-03-08 19:52:00,
2013-03-08 15:01:00,62.0,21.0,-100.00,East,90,5.0,12.0,20,-99.99,,,-99.99,,2013-03-08 20:01:00,
2013-03-08 15:11:00,62.0,20.0,-100.00,North,5,4.0,14.0,19,-99.99,,,-99.99,,2013-03-08 20:11:00,
2013-03-08 15:22:00,63.0,20.0,-100.00,East,85,6.0,14.0,19,-99.99,,,-99.99,,2013-03-08 20:22:00,
2013-03-08 15:32:00,63.0,20.0,-100.00,North,0,4.0,11.0,19,-99.99,,,-99.99,,2013-03-08 20:32:00,
2013-03-08 15:42:00,62.0,19.0,-100.00,NE,50,4.0,13.0,19,-99.99,,,-99.99,,2013-03-08 20:42:00,
2013-03-08 15:53:00,64.0,21.0,-100.00,ENE,75,5.0,12.0,19,-99.99,,,-99.99,,2013-03-08 20:53:00,
2013-03-08 16:02:00,64.0,21.0,-100.00,East,90,4.0,16.0,19,-99.99,,,-99.99,,2013-03-08 21:02:00,
2013-03-08 16:11:00,64.0,21.0,-100.00,East,90,6.0,10.0,19,-99.99,,,-99.99,,2013-03-08 21:11:00,
2013-03-08 16:22:00,64.0,21.0,-100.00,SSW,210,1.0,11.0,19,-99.99,,,-99.99,,2013-03-08 21:22:00,
2013-03-08 16:32:00,65.0,22.0,-100.00,NNE,20,5.0,11.0,19,-99.99,,,-99.99,,2013-03-08 21:32:00,
2013-03-08 16:42:00,65.0,22.0,-100.00,East,95,2.0,7.0,19,-99.99,,,-99.99,,2013-03-08 21:42:00,
2013-03-08 16:52:00,64.0,22.0,-100.00,SE,130,1.0,9.0,20,-99.99,,,-99.99,,2013-03-08 21:52:00,
2013-03-08 17:01:00,63.0,21.0,-100.00,South,170,5.0,14.0,20,-99.99,,,-99.99,,2013-03-08 22:01:00,
2013-03-08 17:11:00,63.0,22.0,-100.00,NE,35,2.0,11.0,20,-99.99,,,-99.99,,2013-03-08 22:11:00,
2013-03-08 17:22:00,63.0,21.0,-100.00,ENE,70,4.0,9.0,19,-99.99,,,-99.99,,2013-03-08 22:22:00,
2013-03-08 17:32:00,63.0,22.0,-100.00,ENE,70,3.0,11.0,20,-99.99,,,-99.99,,2013-03-08 22:32:00,
2013-03-08 17:42:00,63.0,21.0,-100.00,East,80,4.0,8.0,20,-99.99,,,-99.99,,2013-03-08 22:42:00,
2013-03-08 17:52:00,63.0,21.0,-100.00,ENE,70,4.0,9.0,20,-99.99,,,-99.99,,2013-03-08 22:52:00,
2013-03-08 18:02:00,62.0,21.0,-100.00,ENE,75,6.0,11.0,20,-99.99,,,-99.99,,2013-03-08 23:02:00,
2013-03-08 18:12:00,62.0,20.0,-100.00,ENE,70,3.0,10.0,20,-99.99,,,-99.99,,2013-03-08 23:12:00,
2013-03-08 18:22:00,62.0,20.0,-100.00,East,90,4.0,11.0,20,-99.99,,,-99.99,,2013-03-08 23:22:00,
2013-03-08 18:32:00,61.0,20.0,-100.00,ESE,110,1.0,7.0,20,-99.99,,,-99.99,,2013-03-08 23:32:00,
2013-03-08 18:42:00,60.0,18.0,-100.00,East,80,4.0,11.0,20,-99.99,,,-99.99,,2013-03-08 23:42:00,
2013-03-08 18:52:00,59.0,18.0,-100.00,East,85,4.0,11.0,20,-99.99,,,-99.99,,2013-03-08 23:52:00,
2013-03-08 19:02:00,58.0,17.0,-100.00,East,95,4.0,9.0,20,-99.99,,,-99.99,,2013-03-09 00:02:00,
2013-03-08 19:12:00,57.0,16.0,-100.00,East,80,3.0,8.0,20,-99.99,,,-99.99,,2013-03-09 00:12:00,
2013-03-08 19:22:00,56.0,18.0,-100.00,ENE,70,3.0,9.0,22,-99.99,,,-99.99,,2013-03-09 00:22:00,
2013-03-08 19:32:00,55.0,17.0,-100.00,North,0,3.0,10.0,22,-99.99,,,-99.99,,2013-03-09 00:32:00,
2013-03-08 19:40:00,54.0,17.0,-100.00,NNE,25,2.0,7.0,23,-99.99,,,-99.99,,2013-03-09 00:40:00,
2013-03-08 19:42:00,55.0,17.0,-100.00,East,90,1.0,6.0,22,-99.99,,,-99.99,,2013-03-09 00:42:00,
2013-03-08 19:52:00,54.0,17.0,-100.00,East,90,1.0,5.0,23,-99.99,,,-99.99,,2013-03-09 00:52:00,
2013-03-08 20:02:00,54.0,17.0,-100.00,East,85,1.0,6.0,23,-99.99,,,-99.99,,2013-03-09 01:02:00,
2013-03-08 20:12:00,54.0,17.0,-100.00,NNE,25,2.0,7.0,23,-99.99,,,-99.99,,2013-03-09 01:12:00,
2013-03-08 20:22:00,54.0,17.0,-100.00,NNE,25,2.0,7.0,23,-99.99,,,-99.99,,2013-03-09 01:22:00,
2013-03-08 20:32:00,54.0,17.0,-100.00,NNE,25,2.0,7.0,23,-99.99,,,-99.99,,2013-03-09 01:32:00,
2013-03-08 22:11:00,48.0,18.0,-100.00,ENE,75,2.0,6.0,30,-99.99,,,-99.99,,2013-03-09 03:11:00,
2013-03-08 22:22:00,48.0,18.0,-100.00,ENE,75,2.0,6.0,30,-99.99,,,-99.99,,2013-03-09 03:22:00,
2013-03-08 22:32:00,47.0,18.0,-100.00,ESE,105,1.0,4.0,32,-99.99,,,-99.99,,2013-03-09 03:32:00,
2013-03-08 22:42:00,47.0,19.0,-100.00,East,80,2.0,6.0,32,-99.99,,,-99.99,,2013-03-09 03:42:00,
2013-03-08 22:52:00,47.0,19.0,-100.00,East,80,2.0,6.0,32,-99.99,,,-99.99,,2013-03-09 03:52:00,
2013-03-08 23:01:00,46.0,19.0,-100.00,SE,140,0.0,6.0,33,-99.99,,,-99.99,,2013-03-09 04:01:00,
2013-03-08 23:11:00,45.0,19.0,-100.00,SE,140,1.0,3.0,34,-99.99,,,-99.99,,2013-03-09 04:11:00,
2013-03-08 23:22:00,45.0,19.0,-100.00,SE,130,1.0,2.0,35,-99.99,,,-99.99,,2013-03-09 04:22:00,
2013-03-08 23:32:00,45.0,20.0,-100.00,East,90,1.0,4.0,36,-99.99,,,-99.99,,2013-03-09 04:32:00,
2013-03-08 23:42:00,44.0,20.0,-100.00,ENE,70,1.0,3.0,37,-99.99,,,-99.99,,2013-03-09 04:42:00,
2013-03-08 23:51:00,44.0,20.0,-100.00,East,100,0.0,4.0,38,-99.99,,,-99.99,,2013-03-09 04:51:00,